Flag for U.S.A. Weather past 2 weeks in Sunnyvale, California, U.S.A.

Now
61 °F

Overcast.


Feels Like: 61 °F
Forecast: 57 / 76 °F
Wind: 3 mph from South

Location: Moffett Field

Current Time: Aug 23, 2014 at 7:31:38 AM

Latest Report: Aug 23, 2014 at 6:56 AM


Visibility: 10 mi

Pressure: 29.94 "Hg

Humidity: 78%

Dew point: 54 °F

Location of SunnyvaleLocation

Historic Weather in Sunnyvale — Graph

°F

Sunnyvale temperature yesterday

Maximum temperature yesterday: 78 °F (at 1:56 PM)
Minimum temperature yesterday: 62 °F (at 10:56 PM)
Average temperature yesterday: 68 °F

Past Weeks' High & Low Weather Summary

 TemperatureHumidityPressure
High78 °F (Aug 20, 1:56 PM)87% (Aug 14, 10:56 PM)30.06 "Hg (Aug 14, 10:56 PM)
Low59 °F (Aug 9, 4:56 AM)46% (Aug 20, 1:56 PM)29.80 "Hg (Aug 19, 4:56 PM)
Average67 °F71%29.95 "Hg
* Reported Aug 8 5:56 AM — Aug 23 5:56 AM, Sunnyvale, Weather by CustomWeather, © 2014

Note: Actual official high and low records may vary slightly from our data, if they occured in-between our weather recording intervals... More about our weather records

Advertising

Sunnyvale weather history for previous 24 hours

 ConditionsComfort  
Time TempWeatherWind HumidityBarometerVisibility
5:56 AM
Aug 23
62 °FOvercast.3 mph75%29.93 "Hg10 mi
4:56 AM62 °FOvercast.5 mph80%29.93 "Hg10 mi
3:56 AM62 °FOvercast.5 mph80%29.92 "Hg10 mi
2:56 AM62 °FOvercast.5 mph83%29.93 "Hg10 mi
1:56 AM61 °FPassing clouds.No wind83%29.93 "Hg10 mi
12:56 AM62 °FPassing clouds.5 mph80%29.93 "Hg10 mi
11:56 PM
Aug 22
62 °FClear.5 mph80%29.94 "Hg10 mi
10:56 PM62 °FClear.3 mph80%29.94 "Hg10 mi
9:56 PM63 °FClear.6 mph78%29.94 "Hg10 mi
8:56 PM65 °FClear.7 mph73%29.93 "Hg10 mi
7:56 PM66 °FSunny.14 mph73%29.92 "Hg10 mi
6:56 PM69 °FSunny.15 mph66%29.90 "Hg10 mi
5:56 PM73 °FSunny.22 mph59%29.90 "Hg10 mi
4:56 PM76 °FSunny.21 mph60%29.89 "Hg10 mi
3:56 PM77 °FSunny.21 mph56%29.89 "Hg10 mi
2:56 PM78 °FSunny.13 mph54%29.90 "Hg10 mi
1:56 PM78 °FSunny.12 mph48%29.91 "Hg10 mi
12:56 PM75 °FSunny.9 mph55%29.93 "Hg10 mi
11:56 AM74 °FSunny.8 mph60%29.94 "Hg10 mi
10:56 AM74 °FSunny.7 mph60%29.94 "Hg10 mi
9:56 AM70 °FSunny.No wind66%29.94 "Hg10 mi
8:56 AM67 °FScattered clouds.No wind73%29.94 "Hg10 mi
7:56 AM64 °FScattered clouds.No wind84%29.95 "Hg10 mi
Weather by CustomWeather, © 2014

See weather overviewHow to use our weather pages